Dewpoint
59 54 50 39 30 26 23 23 23 39 48 53 54 52 53 53 52 48 58 59 63 64 70 71 72 72 71 70 68 67 67 67 67 67 69 71 69 69 70 69 67 67 66 65 64 67 67 66 66
54 51 42 34 24 21 21 21 34 38 50 51 48 50 52 53 56 57 58 57 59 65 69 71 73 72 71 71 70 68 66 66 67 69 70 71 71 70 69 69 67 66 66 65 66 66 66 67 66
52 49 36 31 26 20 16 22 41 43 51 42 45 48 50 53 55 55 55 63 62 68 69 71 72 72 71 70 70 70 68 67 67 67 69 69 71 71 69 70 68 68 67 66 65 65 65 64 64
48 41 34 28 23 24 21 31 38 41 43 46 47 48 51 52 53 54 61 68 68 69 70 71 71 72 71 71 70 70 70 69 68 67 66 68 71 70 71 71 71 70 70 67 66 65 65 64 64
43 36 28 24 24 23 31 37 35 35 43 45 46 48 52 50 50 54 58 64 65 67 70 71 72 71 71 70 70 70 70 70 69 69 68 67 68 70 70 71 71 70 68 68 67 66 67 66 65
38 32 26 20 21 30 33 35 37 43 43 45 48 48 50 49 51 52 56 57 60 61 63 65 67 68 68 69 69 70 70 70 70 70 70 70 68 68 70 70 71 70 68 68 68 67 67 67 67
35 26 25 20 20 29 29 31 35 35 38 40 47 47 49 47 50 51 51 51 52 52 51 49 48 51 56 60 62 62 62 64 66 68 69 69 70 69 68 70 70 70 70 69 69 68 68 67 68
34 29 22 20 24 27 29 27 31 32 32 38 46 49 51 46 48 45 44 43 42 42 43 39 39 43 43 46 54 55 56 58 58 60 63 65 67 68 69 68 68 70 70 70 70 69 68 69 69
34 26 23 21 24 26 28 28 34 39 41 43 44 47 48 45 43 42 42 40 40 39 39 40 41 41 42 43 46 48 51 51 51 50 53 51 60 64 65 66 67 68 69 70 70 69 69 68 68
31 25 25 28 28 27 28 30 32 39 41 44 45 45 44 43 42 42 41 37 36 36 42 42 43 43 43 42 44 44 44 44 42 40 41 46 46 48 53 59 65 65 67 68 68 69 68 67 67
30 28 29 29 31 30 28 28 33 38 38 42 45 44 44 43 44 44 41 37 35 37 42 43 42 42 43 43 45 45 45 45 44 43 42 41 40 42 46 50 52 54 60 62 65 66 67 67 67
27 28 27 30 32 29 28 30 30 31 31 37 45 43 43 43 44 42 39 37 35 39 41 42 42 41 42 44 44 44 44 46 44 44 44 43 43 41 40 42 45 48 51 54 57 61 63 63 63
26 25 24 26 29 27 28 29 29 32 35 41 40 39 41 41 40 39 38 36 37 38 41 41 42 41 42 43 44 44 45 45 45 45 45 45 43 43 42 42 45 46 48 48 50 52 55 58 61
26 24 22 23 24 25 25 25 29 31 34 36 37 37 38 38 36 34 34 34 37 39 40 41 42 42 44 44 45 46 46 46 47 46 46 46 45 44 44 44 44 45 46 47 48 48 50 53 56
25 22 23 23 21 22 25 24 24 29 30 33 34 34 34 35 35 32 33 33 38 39 40 41 42 45 45 46 46 47 47 48 47 47 47 46 47 46 46 46 46 46 46 47 48 47 48 49 51
22 21 22 22 21 20 26 23 25 27 28 29 29 29 29 31 32 32 33 35 39 40 41 42 45 45 46 46 47 47 47 47 47 47 47 47 47 47 47 47 46 47 47 47 47 47 47 47 48
21 18 19 20 23 21 20 18 25 26 26 26 25 25 25 26 28 29 32 36 40 40 41 43 44 45 46 46 47 47 47 46 46 46 46 46 47 47 47 47 47 46 47 47 46 46 46 46 47
18 18 18 17 20 19 17 16 19 24 23 22 21 21 21 21 22 26 31 39 41 42 42 44 45 46 46 46 46 45 45 45 45 46 46 47 46 46 46 46 46 46 47 47 47 46 47 46 46
20 19 19 24 22 14 15 15 16 20 23 24 24 23 22 21 21 24 33 40 42 42 43 44 45 45 45 44 43 43 43 43 45 46 45 45 45 46 46 46 46 46 46 47 47 47 47 47 47
19 17 17 21 26 13 19 18 17 18 19 21 23 23 22 21 22 33 38 40 41 42 43 45 45 45 43 43 42 43 43 44 45 45 45 45 46 46 46 46 46 46 46 47 48 47 47 47 48
25 18 19 18 23 24 15 10 9 19 22 20 23 24 22 21 20 33 38 39 40 42 43 44 44 43 41 40 41 42 45 44 44 44 44 45 46 46 47 47 47 47 47 48 48 48 47 46 47
21 27 24 20 16 10 17 10 8 13 20 23 21 25 24 23 23 31 35 37 39 41 43 44 43 42 40 38 38 41 43 42 43 44 45 46 46 47 48 48 48 48 48 48 48 49 48 47 46
24 28 24 21 18 15 15 13 12 18 16 19 20 24 30 31 32 31 34 36 39 41 43 43 42 41 39 36 42 44 43 43 44 45 44 46 47 48 49 49 49 49 49 49 50 48 47 47 46
29 29 24 22 16 8 15 15 17 15 22 20 21 26 28 32 33 35 35 37 39 42 43 42 41 40 38 39 43 44 43 42 43 44 45 48 48 48 48 49 49 49 50 50 50 47 46 47 47
26 19 11 9 10 8 13 14 20 23 23 24 25 23 27 33 32 32 34 35 38 41 42 42 41 40 37 41 43 44 44 43 43 45 46 48 48 48 48 48 48 49 50 50 49 46 46 46 46
27 20 14 -3 7 14 20 16 22 22 26 27 26 27 29 30 31 32 32 34 36 37 38 42 41 39 36 39 42 44 44 44 45 46 48 49 49 49 49 49 49 48 49 49 48 47 47 47 47
21 18 25 18 16 12 15 17 18 26 24 27 30 32 29 30 30 31 33 36 34 35 37 39 39 38 36 36 41 43 43 44 44 45 45 48 48 48 48 48 48 48 48 49 48 47 46 46 46
25 26 16 16 2 1 11 15 20 21 22 28 29 31 31 31 31 31 34 34 34 36 38 39 39 38 36 35 40 42 43 44 44 44 44 45 46 46 46 46 47 47 48 49 48 47 46 45 45
26 24 25 19 17 9 8 14 23 24 25 30 28 30 31 32 32 32 34 35 36 37 38 39 38 37 35 35 39 41 42 43 44 44 45 45 45 45 46 46 46 46 47 47 47 46 46 45 44
24 23 23 16 9 15 12 15 22 29 32 30 29 30 32 33 33 34 36 36 37 37 37 38 39 38 37 36 35 40 42 43 44 44 44 44 44 45 45 45 45 45 45 46 46 45 45 44 44
Lifted_Index
6 6 6 5 5 5 5 6 6 4 2 1 0 -0 -1 -1 -0 -0 0 -0 -1 -1 -2 -3 -3 -3 -3 -2 -2 -1 -0 0 -0 -1 -2 -3 -3 -2 -2 -2 -1 -1 -0 1 1 0 0 1 1
6 6 6 5 4 4 5 6 5 4 2 1 0 -0 -1 -0 -0 0 -0 -0 -1 -2 -2 -3 -3 -3 -3 -3 -2 -1 -1 -0 -0 -1 -2 -3 -3 -3 -2 -2 -1 -1 -0 0 1 1 1 1 1
6 6 5 5 4 4 5 5 5 3 2 1 1 0 -0 0 0 -0 -0 -1 -1 -2 -3 -3 -3 -3 -3 -3 -2 -2 -1 -1 -1 -1 -1 -2 -3 -3 -3 -2 -2 -1 -0 0 1 1 1 1 2
6 6 5 5 5 5 5 5 4 3 2 1 1 1 0 0 0 -0 -1 -1 -2 -2 -3 -3 -3 -3 -3 -3 -2 -2 -2 -2 -1 -1 -1 -1 -2 -3 -3 -3 -2 -1 -0 0 1 1 1 1 2
6 6 6 6 6 6 6 5 5 4 3 2 1 1 1 1 0 -1 -2 -2 -2 -2 -2 -3 -3 -3 -2 -2 -2 -2 -2 -2 -2 -2 -1 -1 -1 -2 -2 -3 -2 -1 -1 -0 0 1 1 1 1
6 6 6 6 6 6 6 5 5 4 4 3 2 1 1 1 -0 -1 -2 -2 -2 -2 -2 -2 -2 -2 -2 -1 -1 -1 -2 -2 -2 -2 -2 -1 -1 -1 -2 -2 -2 -2 -1 -1 -0 -0 0 0 0
6 6 6 6 6 6 6 5 5 5 4 4 3 2 1 0 -0 -1 -1 -2 -2 -2 -2 -1 -1 -1 -1 -0 -0 -0 -0 -0 -0 -0 -1 -1 -1 -1 -1 -2 -2 -2 -2 -1 -1 -1 -1 -0 -0
7 7 6 6 6 6 6 5 5 5 5 4 3 2 1 0 -0 -1 -1 -1 -1 -1 -1 -0 -0 0 1 1 1 1 1 2 2 2 1 1 0 -0 -1 -1 -1 -2 -2 -2 -1 -1 -1 -1 -1
7 7 6 7 7 6 6 6 5 5 5 5 4 3 1 0 0 -0 -0 -0 -0 -0 0 0 1 1 2 2 2 3 3 4 4 5 5 5 4 4 3 2 1 -0 -1 -1 -1 -1 -1 -1 -1
7 7 7 8 7 6 6 5 5 5 5 5 4 3 2 1 1 1 1 1 1 1 1 1 2 3 4 5 5 6 7 8 9 9 10 10 10 9 9 7 5 4 3 1 0 -0 -0 -0 -0
8 8 8 8 8 7 6 5 5 6 6 5 4 3 2 1 1 2 2 2 3 3 4 4 5 7 8 9 10 11 12 12 13 13 13 13 13 13 12 12 11 10 8 6 4 3 2 1 1
8 8 8 8 8 7 6 6 6 6 6 5 4 3 2 2 3 3 4 5 6 7 8 9 10 11 12 13 13 13 14 14 14 14 14 14 14 14 14 14 13 13 12 11 9 8 6 4 3
8 8 7 7 7 7 7 6 6 6 6 6 5 4 4 4 4 5 7 8 9 10 11 12 13 14 14 14 14 13 13 13 13 13 13 13 14 14 14 14 14 14 14 13 13 12 10 8 7
8 7 7 6 6 7 6 6 6 6 6 6 6 6 6 6 7 8 9 10 11 12 13 13 14 14 13 13 13 13 13 13 13 13 13 13 13 13 13 13 13 14 14 14 14 13 13 12 10
7 7 6 6 6 6 6 6 6 6 6 7 7 7 7 8 8 9 10 11 12 13 13 13 13 13 13 13 12 12 12 12 13 13 13 13 13 13 13 13 13 13 13 13 13 13 13 13 12
6 6 5 5 6 6 6 5 6 6 7 7 7 7 8 8 9 10 11 12 12 13 13 13 12 12 12 12 12 12 12 13 13 14 14 14 14 14 14 14 13 13 13 13 13 13 13 12 12
5 4 4 5 6 6 5 5 6 6 7 7 7 8 8 9 9 10 11 12 12 12 12 12 12 12 12 12 12 12 13 14 15 15 15 15 15 14 14 14 14 14 14 13 13 13 12 12 12
4 4 4 4 5 6 5 5 6 7 7 7 7 8 8 9 10 11 11 12 12 12 12 11 12 12 12 12 12 12 14 15 16 15 15 14 14 14 14 14 14 14 14 13 13 12 12 11 11
4 4 4 4 5 5 5 5 6 6 7 7 7 8 9 9 10 11 12 12 12 12 11 11 11 11 11 11 12 13 15 16 15 14 14 13 13 13 13 13 13 13 13 12 12 11 11 11 11
5 4 4 4 5 5 5 5 5 6 6 7 8 8 9 9 10 11 11 11 11 11 11 11 11 11 11 12 14 15 16 15 14 13 13 13 13 13 13 13 13 12 12 11 11 11 11 11 11
5 4 4 4 5 5 4 4 4 5 6 7 7 8 9 9 10 11 11 11 11 11 11 11 11 11 12 14 15 16 15 13 13 13 13 13 13 13 13 12 11 11 10 10 11 11 11 11 11
5 5 5 4 4 4 4 3 3 4 5 6 7 8 9 9 10 10 10 11 11 11 11 11 11 12 13 14 16 16 14 12 13 13 13 13 13 12 11 11 10 10 10 10 11 11 11 11 11
5 5 5 5 4 3 3 3 3 4 5 6 7 8 9 9 10 10 10 11 11 11 11 11 12 12 13 14 15 15 13 12 12 13 13 12 12 11 10 10 9 9 10 10 11 11 11 11 11
6 5 4 4 3 2 3 3 3 4 5 6 7 8 9 10 10 11 11 11 11 11 11 11 11 12 12 13 15 14 12 11 12 12 12 11 10 9 9 9 9 9 10 10 10 11 11 11 11
6 4 3 2 1 2 3 3 3 5 6 7 8 9 10 11 11 11 11 11 11 11 11 11 11 11 11 12 14 13 11 10 10 10 10 9 9 8 9 9 9 10 10 10 10 10 11 11 11
5 4 3 2 1 2 3 3 4 6 7 9 9 10 11 11 11 11 11 11 11 11 11 11 11 11 11 11 13 12 10 9 9 9 8 8 8 8 8 9 9 9 10 10 10 10 10 11 11
5 5 4 3 2 2 3 4 5 7 8 9 10 11 11 11 11 11 11 11 11 11 11 11 11 11 10 11 12 12 10 9 8 8 8 8 8 8 8 9 9 9 9 10 9 9 10 10 11
6 6 5 4 3 2 2 4 5 7 8 9 10 10 11 11 11 11 11 11 11 11 10 11 11 10 10 10 11 12 10 9 8 8 8 8 9 9 9 9 9 9 10 10 9 9 9 10 10
6 6 5 5 4 3 2 3 5 7 8 9 10 10 10 10 11 11 10 10 10 10 10 10 10 10 9 9 10 11 11 9 8 8 9 10 10 10 10 10 10 11 11 11 10 9 9 9 10
6 6 5 5 4 4 3 4 6 8 9 9 10 9 10 10 10 10 10 10 10 10 10 10 10 9 9 8 9 10 11 10 9 8 9 10 11 11 10 11 11 12 12 12 11 10 9 9 9